Вернуться в каталог

TJS-19 AKM

АктивенGEO
NORAD 64094·ROCKET BODY·🇨🇳 China

Запущен May 12, 2025 с Xichang Satellite Launch Center

Loading…

TLE

СвежийSource: Space-Track

Эпоха: Sep 13, 2026, 10:34 UTC

1 64094U 25097C   26256.44042705 -.00000243  00000-0  00000+0 0  9992
2 64094   3.1333 319.4898 0014526 225.2280 134.4878  0.98828296  4796

Отслеживайте TJS-19 AKM в реальном времени с AllMySat

Download on the App Store